Location: Fontevrault
(47.1823°N, 0.0493°E)
Time: 04:10:04
(UTC+00:00)

Uosat 12 SS-18 rocket - Pass Details

Date: 23 October 2021
Orbit: 579 x 1405 km, 64.6° (Epoch: 01 December)

Event Time Altitude Azimuth Distance (km) Brightness Sun altitude
Rises 21:53:37 0° 319° (NW) 3,698 8.7 -47.6°
Reaches altitude 10° 21:56:28 10° 331° (NNW) 2,880 8.0 -47.9°
Enters shadow 21:58:21 18° 343° (NNW) 2,438 7.4 -48.2°
